Regional Weather Roundup
Issued by NWS Bismarck, ND

Home | Current Version | Previous Version | Text Only | Print | Product List | Glossary On
Versions: 1 2 3 4 5 6 7 8 9 10 11 12 13 14 15 16 17 18 19 20 21 22 23 24 25 26 27 28 29 30 31 32 33 34 35 36 37 38 39 40 41 42 43 44 45 46 47 48 49 50
000
ASUS43 KBIS 200202
RWRBIS

NWR BROADCAST TEXT
NATIONAL WEATHER SERVICE BISMARCK ND
800 PM CST FRI JAN 19 2018

NOTE: "FAIR" INDICATES FEW OR NO CLOUDS BELOW 12,000 FEET WITH NO
SIGNIFICANT WEATHER AND/OR OBSTRUCTIONS TO VISIBILITY.


CITY           SKY/WX    TMP DP  RH WIND       PRES   REMARKS
WILLISTON      FAIR      31  24  75 VRB3      29.68R
MINOT          FAIR      36  26  67 SW14      29.62R
MINOT AFB      CLEAR     32  26  78 W12       29.60R
BISMARCK       FAIR      37  31  78 W9        29.69R
DICKINSON      MOCLDY    35  30  82 W16       29.67S
GARRISON         N/A     34  26  72 W14       29.65R
HETTINGER ARPT CLOUDY    34  31  88 W13       29.74R
JAMESTOWN      FAIR      35  29  78 W10       29.63R
CARRINGTON     FAIR      34  30  86 W8        29.65R
HAZEN            N/A     30  28  93 CALM      29.69R
LINTON           N/A     32  28  86 W8        29.71S
MANDAN         FAIR      37  30  75 W15       29.68R
OAKES            N/A     30  28  93 W3        29.66F
RUGBY          FAIR      25  25 100 W8        29.60S WCI  16
STANLEY        FAIR      30  27  86 W13       29.65S
TIOGA          FAIR      28  27  93 W14       29.65R WCI  17
WATFORD CITY   FAIR      30  27  86 SW8       29.68S
$$

CITY           SKY/WX    TMP DP  RH WIND       PRES   REMARKS
GRAND FORKS    MOCLDY    34  30  85 W9        29.59R
GRAND FORKS AF MOCLDY    36  29  76 NW9       29.59R
DEVILS LAKE    FAIR      30  27  88 W9        29.60R
FARGO          FAIR      33  30  88 SW9       29.64R
CANDO          FAIR      30  30 100 W9        29.60S
CAVALIER         N/A     37  30  75 W12       29.54R
GRAFTON        FAIR      32  30  93 W10       29.58R
GWINNER          N/A     34  30  86 W12       29.66R
LANGDON        FAIR      28  28 100 W14       29.56R WCI  17
ROLLA          FAIR      32  27  80 W16       29.56R
WALHALLA       FAIR      37  30  75 W8        29.54R
$$

CITY           SKY/WX    TMP DP  RH WIND       PRES   REMARKS
ABERDEEN       PTCLDY    30  27  88 W3        29.70R
MOBRIDGE       PTCLDY    33  28  81 N5        29.69R
BUFFALO          N/A     36  33  89 W6        29.66R
RAPID CITY     PTCLDY    29  26  89 CALM      29.74R
GLASGOW        CLOUDY    29  24  82 SW6       29.69R
SIDNEY         MOCLDY    36  30  79 SW9       29.70S
WOLF POINT     MOCLDY    33  27  78 W8        29.70S
GLENDIVE       CLOUDY    33  31  92 S5        29.72F
MILES CITY     CLOUDY    35  34  96 W7        29.75R
BAKER          LGT RAIN  34  34 100 W7        29.73S
$$

CITY           SKY/WX    TMP DP  RH WIND       PRES   REMARKS
BILLINGS       CLOUDY    34  32  92 SW6       29.79R
GREAT FALLS    PTCLDY    31  18  58 SW15      29.74S
$$




USA.gov is the U.S. government's official web portal to all federal, state and local government web resources and services.